Regional Weather Roundup
Issued by NWS Jackson, KY

Home | Current Version | Previous Version | Graphics & Text | Print | Product List | Glossary On
Versions: 1 2 3 4 5 6 7 8 9 10 11 12 13 14 15 16 17 18 19 20 21 22 23 24 25 26 27
000
ASUS43 KJKL 251310
RWRJKL

EAST KENTUCKY HOURLY WEATHER ROUNDUP
NATIONAL WEATHER SERVICE JACKSON KY
900 AM EDT SUN JUN 25 2017

NOTE: "FAIR" INDICATES FEW OR NO CLOUDS BELOW 12,000 FEET WITH
NO SIGNIFICANT WEATHER AND/OR OBSTRUCTIONS TO VISIBILITY.

* THESE REPORTS ARE NOT UNDER NWS QUALITY CONTROL AND MAY NOT
  REPORT WEATHER SUCH AS PRECIPITATION AND FOG.

KYZ079-080-083-085-087-088-110-112-115-119-120-251400
...EASTERN KENTUCKY...

CITY           SKY/WX    TMP DP  RH WIND       PRES   REMARKS
JACKSON        SUNNY     65  59  81 CALM      30.21R
LONDON         SUNNY     66  55  67 NW3       30.22R
SOMERSET*      SUNNY     64  55  72 CALM      30.24R
MONTICELLO*    MOSUNNY   67  61  81 W10       30.25R
WILLIAMSBURG*  SUNNY     64  59  82 CALM      30.23R
MIDDLESBORO*   SUNNY     65  59  82 CALM      30.23R
HARLAN APT*    MOSUNNY   61  59  94 CALM      30.22R
PIKE CO APT*     N/A     64  60  87 CALM      30.21R
BIG SANDY APT* MOSUNNY   65  59  78 CALM      30.20R
MOREHEAD APT*  SUNNY     64  57  77 SW5       30.21R HAZE
$$

KYZ035-036-041-042-044-050-067-078-099-251400
...CENTRAL KENTUCKY...

CITY           SKY/WX    TMP DP  RH WIND       PRES   REMARKS
MT STERLING*   SUNNY     64  55  72 CALM      30.22R
FLEMING/MASON* SUNNY     65  56  71 W5        30.20R
DANVILLE*      SUNNY     68  54  60 CALM      30.23R
LEXINGTON      SUNNY     66  54  65 W3        30.21R
FRANKFORT      SUNNY     65  55  70 SW5       30.19R
LOUISVILLE     MOSUNNY   68  55  63 CALM      30.19R
LEBANON*         N/A    N/A N/A N/A MISG        N/A
GLASGOW*       SUNNY     64  57  79 CALM      30.22S
BOWLING GREEN  MOSUNNY   67  57  70 CALM      30.22R
$$

KYZ091>093-OHZ055-061-077-WVZ005-015-034-035-042-251400
...SOUTHERN OHIO/WEST VIRGINIA...

CITY           SKY/WX    TMP DP  RH WIND       PRES   REMARKS
COVINGTON      SUNNY     65  51  60 SW8       30.16S
COLUMBUS       SUNNY     65  51  60 S6        30.12R
DAYTON         SUNNY     65  48  54 SW12      30.13S
WILMINGTON     SUNNY     65  52  62 W9        30.15R
HUNTINGTON     SUNNY     68  54  60 W6        30.17R
CHARLESTON     MOSUNNY   67  55  65 SW7       30.16R
PINEVILLE*     MOSUNNY   66  58  76 MISG      30.24R
BECKLEY        MOSUNNY   63  52  67 NW7       30.20R
BLUEFIELD      CLOUDY    60  54  80 NW8       30.22R
LOGAN CO APT*    N/A     66  55  68 CALM      30.19R
$$

VAZ002-007-008-TNZ017-027-036-066-071-251400
...SOUTHWEST VIRGINIA/EAST TENNESSEE...

CITY           SKY/WX    TMP DP  RH WIND       PRES   REMARKS
WISE*          MOSUNNY   63  50  63 CALM      30.25R
JONESVILLE*      N/A     68  55  64 CALM      30.23R
ABINGDON*      CLOUDY    67  58  72 N7        30.20S
BRISTOL        CLOUDY    68  62  81 CALM      30.19R
MORRISTOWN*    PTSUNNY   70  59  68 N6        30.20R
SEVIERVILLE*   PTSUNNY   68  59  73 SW3       30.20R
KNOXVILLE      CLOUDY    67  56  67 N3        30.19R
LAFOLLETTE*    SUNNY     68  57  68 CALM      30.25R
OAK RIDGE      CLOUDY    68  59  73 CALM      30.22R
CROSSVILLE     PTSUNNY   61  55  81 N5        30.25R
NASHVILLE      MOSUNNY   70  55  59 NW7       30.23R
$$

...KEY TO REMARKS...
VSB - VISIBILITY IN MILES
WCI - WIND CHILL INDEX
HX  - HEAT INDEX

$$




USA.gov is the U.S. government's official web portal to all federal, state and local government web resources and services.